Location: Neuvy Saint Sepulchre
(46.5953°N, 1.8122°E)
Time: 05:47:15
(UTC+02:00)

ISS - Pass Details

Date: 29 June 2021
Orbit: 417 x 422 km, 51.6° (Epoch: 16 June)

Event Time Altitude Azimuth Distance (km) Brightness Sun altitude
Exits shadow 04:15:15 12° 158° (SSE) 1,392 -1.5 -13.4°
Maximum altitude 04:16:32 14° 134° (SE) 1,283 -1.4 -13.3°
Drops below altitude 10° 04:18:20 10° 101° (ESE) 1,499 -0.7 -13.1°
Sets 04:21:11 0° 75° (ENE) 2,366 0.9 -12.9°
